Minneapolis Flying Cloud, MN

8:00 PM CDT on April 29, 2017 (GMT -0500)
Flying Cloud

Weather History for KFCM - August, 2014

Change the Weather History Date:

Thursday, August 28, 2014

  Actual Average Record
Temperature  
Mean Temperature 66 °F -  
Max Temperature 72 °F 78 °F 91 °F (2013)
Min Temperature 61 °F 58 °F 54 °F (2004)
Cooling Degree Days 1    
Growing Degree Days 16 (Base 50)    
Moisture  
Dew Point 62 °F    
Average Humidity 84    
Maximum Humidity 90    
Minimum Humidity 68    
Precipitation  
Precipitation 0.02 in - - ()
Sea Level Pressure  
Sea Level Pressure 30.00 in    
Wind  
Wind Speed 8 mph (ESE)    
Max Wind Speed 16 mph    
Max Gust Speed 22 mph    
Visibility 10 miles    
Events Rain    
Averages and records for this station are not official NWS values.
T = Trace of Precipitation, MM = Missing Value Source: NWS Daily Summary

Daily Weather History Graph

Daily Weather History Graph

Search for Another Location

Airport or City:

Trip Planner

Search our weather history database for the weather conditions in past years. The results will help you decide how hot, cold, wet, or windy it might be!

Date:

Astronomy

Aug. 28, 2014 Rise Set
Actual Time 6:31 AM CDT 7:57 PM CDT
Civil Twilight 6:00 AM CDT 8:28 PM CDT
Nautical Twilight 5:23 AM CDT 9:05 PM CDT
Astronomical Twilight 4:44 AM CDT 9:44 PM CDT
Moon 9:33 AM CDT (8/28) 9:11 PM CDT (8/28)
Length of Visible Light 14h 27m
Length of Day
13h 26m
Waxing Crescent, 9% of the Moon is Illuminated
Aug 28
Waxing Crescent
Sep 2
First Quarter
Sep 8
Full
Sep 15
Last Quarter
Sep 24
New

Hourly Weather History & Observations

Time (CDT) Temp. Dew Point Humidity Pressure Visibility Wind Dir Wind Speed Gust Speed Precip Events Conditions
12:53 AM 64.9 °F 57.9 °F 78% 30.12 in 10.0 mi East 5.8 mph - N/A   Clear
1:53 AM 64.0 °F 59.0 °F 84% 30.11 in 10.0 mi East 5.8 mph - N/A   Clear
2:53 AM 63.0 °F 59.0 °F 87% 30.09 in 10.0 mi ENE 6.9 mph - N/A   Clear
3:53 AM 63.0 °F 59.0 °F 87% 30.07 in 10.0 mi East 8.1 mph - N/A   Clear
4:53 AM 62.1 °F 57.9 °F 86% 30.06 in 10.0 mi East 6.9 mph - N/A   Clear
5:53 AM 61.0 °F 57.9 °F 90% 30.06 in 10.0 mi ESE 4.6 mph - N/A   Clear
6:53 AM 62.1 °F 57.9 °F 86% 30.07 in 10.0 mi East 3.5 mph - N/A   Clear
7:53 AM 63.0 °F 57.9 °F 84% 30.06 in 10.0 mi ESE 6.9 mph - N/A   Clear
8:53 AM 66.0 °F 59.0 °F 78% 30.06 in 10.0 mi SE 9.2 mph - N/A   Scattered Clouds
10:53 AM 70.0 °F 60.1 °F 71% 30.04 in 10.0 mi ESE 9.2 mph - N/A   Clear
11:53 AM 71.1 °F 61.0 °F 70% 30.03 in 10.0 mi South 10.4 mph - N/A   Clear
12:53 PM 71.1 °F 60.1 °F 68% 30.02 in 10.0 mi SSE 10.4 mph - N/A   Mostly Cloudy
1:53 PM 66.9 °F 63.0 °F 87% 30.00 in 6.0 mi SE 6.9 mph - 0.02 in Rain Light Rain
2:49 PM 68.0 °F 64.4 °F 88% 29.98 in 10.0 mi ESE 11.5 mph - 0.00 in   Overcast
2:53 PM 68.0 °F 64.0 °F 87% 29.98 in 10.0 mi East 8.1 mph - 0.00 in   Overcast
3:05 PM 68.0 °F 64.4 °F 88% 29.98 in 10.0 mi ESE 8.1 mph - N/A   Overcast
3:18 PM 69.8 °F 64.4 °F 83% 29.97 in 10.0 mi East 9.2 mph - N/A   Overcast
3:35 PM 69.8 °F 64.4 °F 83% 29.97 in 10.0 mi ESE 11.5 mph - N/A   Overcast
3:53 PM 69.1 °F 64.0 °F 84% 29.96 in 10.0 mi ESE 12.7 mph - N/A   Overcast
4:53 PM 69.1 °F 64.0 °F 84% 29.95 in 10.0 mi ESE 11.5 mph - N/A   Overcast
5:53 PM 69.1 °F 64.0 °F 84% 29.94 in 10.0 mi ESE 9.2 mph - N/A   Overcast
6:53 PM 69.1 °F 64.0 °F 84% 29.93 in 10.0 mi ESE 16.1 mph 21.9 mph N/A   Overcast
7:53 PM 68.0 °F 63.0 °F 84% 29.93 in 10.0 mi ESE 12.7 mph - N/A   Overcast
8:53 PM 66.9 °F 64.0 °F 90% 29.91 in 10.0 mi ESE 10.4 mph - N/A   Overcast
9:53 PM 68.0 °F 64.0 °F 87% 29.90 in 10.0 mi ESE 12.7 mph 19.6 mph N/A   Overcast
10:53 PM 68.0 °F 64.0 °F 87% 29.89 in 10.0 mi ESE 10.4 mph - N/A   Overcast
11:53 PM 68.0 °F 64.0 °F 87% 29.88 in 10.0 mi ESE 13.8 mph - N/A   Overcast